Weather History for Medicine Lodge, KS

Change the Weather History Date:

Thursday, October 27, 2011

  Actual Average Record
Temperature  
Mean Temperature 44 °F 54 °F  
Max Temperature 54 °F 67 °F 92 °F (1950)
Min Temperature 34 °F 42 °F 19 °F (2012)
Degree Days  
Heating Degree Days 20 11  
Month to date heating degree days 189  
Since 1 July heating degree days 223  
Cooling Degree Days 0 0  
Month to date cooling degree days 37  
Year to date cooling degree days 1768  
Moisture  
Dew Point 33 °F    
Average Humidity 68    
Maximum Humidity 89    
Minimum Humidity 35    
Precipitation  
Precipitation 0.05 in 0.08 in 1.28 in (1899)
Month to date precipitation 2.53  
Year to date precipitation 24.98  
Snow  
Snow 0.00 in 0.00 in - ()
Month to date snowfall 0.0  
Since 1 July snowfall 0.0  
Since 1 September snowfall 0.0  
Snow Depth -    
Sea Level Pressure  
Sea Level Pressure 30.17 in    
Wind  
Wind Speed 9 mph (North)    
Max Wind Speed 15 mph    
Max Gust Speed 28 mph    
T = Trace of Precipitation, MM = Missing Value Source: NWS Daily Summary

Daily Weather History Graph

Daily Weather History Graph

Search for Another Location

Airport:

Trip Planner

Search our weather history database for the weather conditions in past years. The results will help you decide how hot, cold, wet, or windy it might be!

Date:

Astronomy

Oct. 27, 2011 Rise Set
Actual Time 7:53 AM CDT 6:42 PM CDT
Civil Twilight 7:26 AM CDT 7:08 PM CDT
Nautical Twilight 6:56 AM CDT 7:39 PM CDT
Astronomical Twilight 6:25 AM CDT 8:09 PM CDT
Moon 8:55 AM CDT (10/27) 7:15 PM CDT (10/27)
Length of Visible Light 11h 42m
Length of Day
10h 48m
New Moon, 1% of the Moon is Illuminated
Oct 27
New Moon
Nov 2
First Quarter
Nov 10
Full
Nov 18
Last Quarter
Nov 25
New

Hourly Weather History & Observations

Time (CDT) Temp. Windchill Dew Point Humidity Pressure Visibility Wind Dir Wind Speed Gust Speed Precip Events Conditions
12:56 AM 44.1 °F 37.1 °F 37.0 °F 76% 30.17 in - North 15.0 mph 27.6 mph N/A   Unknown
1:56 AM 42.1 °F 35.2 °F 39.0 °F 89% 30.16 in - North 12.7 mph 20.7 mph 0.04 in   Unknown
2:56 AM 42.1 °F 35.7 °F 39.0 °F 89% 30.15 in - North 11.5 mph - 0.01 in   Unknown
3:56 AM 43.0 °F 39.5 °F 39.9 °F 89% 30.13 in - North 5.8 mph - N/A   Unknown
4:56 AM 42.1 °F 37.1 °F 39.0 °F 89% 30.15 in - NNW 8.1 mph - N/A   Unknown
5:56 AM 41.0 °F 35.8 °F 37.0 °F 86% 30.13 in - North 8.1 mph - N/A   Unknown
6:56 AM 39.0 °F 34.8 °F 36.0 °F 89% 30.16 in - North 5.8 mph - N/A   Unknown
7:56 AM 37.9 °F 34.4 °F 35.1 °F 89% 30.19 in - North 4.6 mph - N/A   Unknown
8:56 AM 37.9 °F 32.7 °F 35.1 °F 89% 30.19 in - North 6.9 mph - N/A   Unknown
9:56 AM 42.1 °F 35.7 °F 36.0 °F 79% 30.21 in - North 11.5 mph - N/A   Unknown
10:56 AM 46.9 °F - 36.0 °F 66% 30.19 in - NNE 15.0 mph 19.6 mph N/A   Unknown
11:56 AM 48.9 °F - 34.0 °F 56% 30.20 in - North 10.4 mph - N/A   Unknown
12:56 PM 51.1 °F - 32.0 °F 48% 30.18 in - NNE 11.5 mph 18.4 mph N/A   Unknown
1:56 PM 52.0 °F - 30.9 °F 45% 30.16 in - NNE 11.5 mph - N/A   Unknown
2:56 PM 52.0 °F - 28.9 °F 41% 30.14 in - NNE 11.5 mph - N/A   Unknown
3:56 PM 53.1 °F - 28.0 °F 38% 30.14 in - NNE 10.4 mph - N/A   Unknown
4:56 PM 53.1 °F - 26.1 °F 35% 30.14 in - NE 5.8 mph - N/A   Unknown
5:56 PM 52.0 °F - 26.1 °F 37% 30.15 in - NNE 5.8 mph - N/A   Unknown
6:56 PM 48.0 °F - 27.0 °F 44% 30.17 in - NE 3.5 mph - N/A   Unknown
7:56 PM 43.0 °F 41.3 °F 30.0 °F 60% 30.19 in - North 3.5 mph - N/A   Unknown
8:56 PM 37.9 °F - 28.9 °F 70% 30.21 in - Calm Calm - N/A   Unknown
9:56 PM 36.0 °F - 28.9 °F 76% 30.22 in - Calm Calm - N/A   Unknown
10:56 PM 37.0 °F - 28.9 °F 73% 30.22 in - Calm Calm - N/A   Unknown
11:56 PM 34.0 °F - 28.9 °F 82% 30.23 in - Calm Calm - N/A   Unknown